Location: Stara Lesna
(49.1528°N, 20.2911°E)
Time: 18:48:42
(UTC+02:00)

COSMOS 2406 - Pass Details

Date: 13 July 2020
Orbit: 844 x 863 km, 71.0° (Epoch: 10 August)

Event Time Altitude Azimuth Distance (km) Brightness Sun altitude
Exits shadow 03:00:46 18° 214° (SW) 1,995 4.5 -12.9°
Maximum altitude 03:05:10 78° 300° (WNW) 887 3.3 -12.5°
Drops below altitude 10° 03:10:57 10° 27° (NNE) 2,510 7.2 -12.0°
Sets 03:13:26 0° 28° (NNE) 3,449 8.5 -11.7°
